User: anonymous   Login
Location: Unspecified
(0.0000°N, 0.0000°E)
Time: 19:03:15
(UTC+01:00)
Language:

Cosmos 1538 Rocket - Orbit

View from above orbital plane
View from above orbital plane
View from above satellite
View from above satellite

Ground track
Ground track

The orbit data is extracted from the following two-line orbital elements,

1 14760U 84019B   17057.87097323  .00000057  00000-0  28485-4 0  9992
2 14760  74.0451 324.2175 0028644 212.8711 213.1014 14.35810491727757
Epoch (UTC): 26 February 2017 20:54:12
Eccentricity: 0.0028644
inclination: 74.0451°
perigee height: 752 km
apogee height: 793 km
right ascension of ascending node: 324.2175°
argument of perigee: 212.8711°
revolutions per day: 14.35810491
mean anomaly at epoch: 213.1014°
orbit number at epoch: 72775

The dashed part of the orbit path shows where the satellite is in the earth's shadow,  

DLR